Time,TemperatureF,DewpointF,PressureIn,WindDirection,WindDirectionDegrees,WindSpeedMPH,WindSpeedGustMPH,Humidity,HourlyPrecipIn,Conditions,Clouds,dailyrainin,SolarRadiationWatts/m^2,SoftwareType,DateUTC
2013-02-05 00:02:00,55.1,52.5,30.10,SSE,157,3.0,4.0,91,0.00,,,0.00,0,HR-IXP-WINDi_r2_v1.2,2013-02-05 08:02:00,
2013-02-05 00:08:00,54.9,52.0,30.10,SE,128,1.0,4.0,90,0.00,,,0.00,0,HR-IXP-WINDi_r2_v1.2,2013-02-05 08:08:00,
2013-02-05 00:13:00,54.9,52.3,30.10,SE,128,0.0,4.0,91,0.00,,,0.00,0,HR-IXP-WINDi_r2_v1.2,2013-02-05 08:13:00,
2013-02-05 00:18:00,54.9,52.0,30.09,SE,128,0.0,2.0,90,0.00,,,0.00,0,HR-IXP-WINDi_r2_v1.2,2013-02-05 08:18:00,
2013-02-05 00:23:00,54.9,52.0,30.09,SE,128,0.0,1.0,90,0.00,,,0.00,0,HR-IXP-WINDi_r2_v1.2,2013-02-05 08:23:00,
2013-02-05 00:28:00,54.9,52.0,30.09,SE,128,1.0,1.0,90,0.00,,,0.00,0,HR-IXP-WINDi_r2_v1.2,2013-02-05 08:28:00,
2013-02-05 00:34:00,55.0,52.1,30.09,SE,127,2.0,2.0,90,0.00,,,0.00,0,HR-IXP-WINDi_r2_v1.2,2013-02-05 08:34:00,
2013-02-05 00:39:00,54.9,52.0,30.09,SE,127,0.0,3.0,90,0.00,,,0.00,0,HR-IXP-WINDi_r2_v1.2,2013-02-05 08:39:00,
2013-02-05 00:44:00,54.9,52.0,30.09,East,100,1.0,4.0,90,0.00,,,0.00,0,HR-IXP-WINDi_r2_v1.2,2013-02-05 08:44:00,
2013-02-05 00:49:00,54.8,51.9,30.09,East,93,2.0,4.0,90,0.00,,,0.00,0,HR-IXP-WINDi_r2_v1.2,2013-02-05 08:49:00,
2013-02-05 00:55:00,54.8,51.9,30.09,East,90,0.0,3.0,90,0.00,,,0.00,0,HR-IXP-WINDi_r2_v1.2,2013-02-05 08:55:00,
2013-02-05 01:00:00,54.7,52.1,30.09,East,88,1.0,3.0,91,0.00,,,0.00,0,HR-IXP-WINDi_r2_v1.2,2013-02-05 09:00:00,
2013-02-05 01:05:00,54.8,51.9,30.09,East,88,1.0,3.0,90,0.00,,,0.00,0,HR-IXP-WINDi_r2_v1.2,2013-02-05 09:05:00,
2013-02-05 01:10:00,54.7,51.8,30.08,East,85,1.0,3.0,90,0.00,,,0.00,0,HR-IXP-WINDi_r2_v1.2,2013-02-05 09:10:00,
2013-02-05 01:16:00,54.6,51.7,30.08,East,85,2.0,3.0,90,0.00,,,0.00,0,HR-IXP-WINDi_r2_v1.2,2013-02-05 09:16:00,
2013-02-05 01:21:00,54.5,51.6,30.08,NE,46,0.0,4.0,90,0.00,,,0.00,0,HR-IXP-WINDi_r2_v1.2,2013-02-05 09:21:00,
2013-02-05 01:26:00,54.4,51.5,30.08,NE,46,0.0,4.0,90,0.00,,,0.00,0,HR-IXP-WINDi_r2_v1.2,2013-02-05 09:26:00,
2013-02-05 01:31:00,54.4,51.5,30.08,NNE,29,1.0,2.0,90,0.00,,,0.00,0,HR-IXP-WINDi_r2_v1.2,2013-02-05 09:31:00,
2013-02-05 01:36:00,54.3,51.4,30.08,NNE,29,0.0,2.0,90,0.00,,,0.00,0,HR-IXP-WINDi_r2_v1.2,2013-02-05 09:36:00,
2013-02-05 01:42:00,54.3,51.4,30.08,NNE,28,0.0,4.0,90,0.00,,,0.00,0,HR-IXP-WINDi_r2_v1.2,2013-02-05 09:42:00,
2013-02-05 01:47:00,54.2,51.3,30.08,NNE,27,0.0,4.0,90,0.00,,,0.00,0,HR-IXP-WINDi_r2_v1.2,2013-02-05 09:47:00,
2013-02-05 01:52:00,54.3,51.4,30.08,NNE,27,0.0,2.0,90,0.00,,,0.00,0,HR-IXP-WINDi_r2_v1.2,2013-02-05 09:52:00,
2013-02-05 01:57:00,54.2,51.3,30.08,SE,133,1.0,2.0,90,0.00,,,0.00,0,HR-IXP-WINDi_r2_v1.2,2013-02-05 09:57:00,
2013-02-05 02:03:00,54.2,51.3,30.08,SSE,163,0.0,3.0,90,0.00,,,0.00,0,HR-IXP-WINDi_r2_v1.2,2013-02-05 10:03:00,
2013-02-05 02:08:00,54.2,51.3,30.08,SSE,163,0.0,3.0,90,0.00,,,0.00,0,HR-IXP-WINDi_r2_v1.2,2013-02-05 10:08:00,
2013-02-05 02:13:00,54.2,51.3,30.08,SSE,153,1.0,2.0,90,0.00,,,0.00,0,HR-IXP-WINDi_r2_v1.2,2013-02-05 10:13:00,
2013-02-05 02:18:00,54.2,51.3,30.08,SSE,153,0.0,2.0,90,0.00,,,0.00,0,HR-IXP-WINDi_r2_v1.2,2013-02-05 10:18:00,
2013-02-05 02:23:00,54.2,51.3,30.08,SSE,152,0.0,2.0,90,0.00,,,0.00,0,HR-IXP-WINDi_r2_v1.2,2013-02-05 10:23:00,
2013-02-05 02:29:00,54.2,51.3,30.07,SSE,152,1.0,2.0,90,0.00,,,0.00,0,HR-IXP-WINDi_r2_v1.2,2013-02-05 10:29:00,
2013-02-05 02:34:00,54.2,51.3,30.07,SSE,152,1.0,2.0,90,0.00,,,0.00,0,HR-IXP-WINDi_r2_v1.2,2013-02-05 10:34:00,
2013-02-05 02:39:00,54.2,51.3,30.07,SSE,153,0.0,2.0,90,0.00,,,0.00,0,HR-IXP-WINDi_r2_v1.2,2013-02-05 10:39:00,
2013-02-05 02:44:00,54.1,51.2,30.07,SSE,153,1.0,2.0,90,0.00,,,0.00,0,HR-IXP-WINDi_r2_v1.2,2013-02-05 10:44:00,
2013-02-05 02:50:00,54.1,51.2,30.07,SSE,152,0.0,2.0,90,0.00,,,0.00,0,HR-IXP-WINDi_r2_v1.2,2013-02-05 10:50:00,
2013-02-05 02:55:00,54.1,51.2,30.07,SSE,152,1.0,2.0,90,0.00,,,0.00,0,HR-IXP-WINDi_r2_v1.2,2013-02-05 10:55:00,
2013-02-05 03:00:00,54.1,51.2,30.06,SSE,152,0.0,2.0,90,0.00,,,0.00,0,HR-IXP-WINDi_r2_v1.2,2013-02-05 11:00:00,
2013-02-05 03:05:00,54.1,51.2,30.06,SSE,153,0.0,2.0,90,0.00,,,0.00,0,HR-IXP-WINDi_r2_v1.2,2013-02-05 11:05:00,
2013-02-05 03:10:00,54.2,51.3,30.06,SSE,153,1.0,3.0,90,0.00,,,0.00,0,HR-IXP-WINDi_r2_v1.2,2013-02-05 11:10:00,
2013-02-05 03:15:00,54.1,51.2,30.06,SE,138,0.0,4.0,90,0.00,,,0.00,0,HR-IXP-WINDi_r2_v1.2,2013-02-05 11:15:00,
2013-02-05 03:21:00,54.1,51.2,30.06,SE,138,0.0,4.0,90,0.00,,,0.00,0,HR-IXP-WINDi_r2_v1.2,2013-02-05 11:21:00,
2013-02-05 03:26:00,54.0,51.1,30.06,SE,138,2.0,2.0,90,0.00,,,0.00,0,HR-IXP-WINDi_r2_v1.2,2013-02-05 11:26:00,
2013-02-05 03:31:00,54.0,51.1,30.06,SE,138,0.0,2.0,90,0.00,,,0.00,0,HR-IXP-WINDi_r2_v1.2,2013-02-05 11:31:00,
2013-02-05 03:36:00,54.0,51.1,30.06,SE,138,0.0,2.0,90,0.00,,,0.00,0,HR-IXP-WINDi_r2_v1.2,2013-02-05 11:36:00,
2013-02-05 03:42:00,54.0,51.1,30.06,SE,138,0.0,0.0,90,0.00,,,0.00,0,HR-IXP-WINDi_r2_v1.2,2013-02-05 11:42:00,
2013-02-05 03:47:00,54.0,51.1,30.06,SE,138,0.0,0.0,90,0.00,,,0.00,0,HR-IXP-WINDi_r2_v1.2,2013-02-05 11:47:00,
2013-02-05 03:52:00,54.0,51.1,30.06,SE,138,1.0,2.0,90,0.00,,,0.00,0,HR-IXP-WINDi_r2_v1.2,2013-02-05 11:52:00,
2013-02-05 03:57:00,54.1,51.2,30.05,SE,138,0.0,2.0,90,0.00,,,0.00,0,HR-IXP-WINDi_r2_v1.2,2013-02-05 11:57:00,
2013-02-05 04:02:00,54.1,51.2,30.05,SE,138,0.0,2.0,90,0.00,,,0.00,0,HR-IXP-WINDi_r2_v1.2,2013-02-05 12:02:00,
2013-02-05 04:07:00,54.1,51.2,30.05,SE,138,0.0,2.0,90,0.00,,,0.00,0,HR-IXP-WINDi_r2_v1.2,2013-02-05 12:07:00,
2013-02-05 04:12:00,54.1,51.2,30.05,SE,138,0.0,0.0,90,0.00,,,0.00,0,HR-IXP-WINDi_r2_v1.2,2013-02-05 12:12:00,
2013-02-05 04:17:00,54.1,51.2,30.05,East,88,2.0,3.0,90,0.00,,,0.00,0,HR-IXP-WINDi_r2_v1.2,2013-02-05 12:17:00,
2013-02-05 04:23:00,54.1,51.2,30.05,East,88,0.0,3.0,90,0.00,,,0.00,0,HR-IXP-WINDi_r2_v1.2,2013-02-05 12:23:00,
2013-02-05 04:28:00,54.0,51.1,30.05,East,88,0.0,3.0,90,0.00,,,0.00,0,HR-IXP-WINDi_r2_v1.2,2013-02-05 12:28:00,
2013-02-05 04:33:00,54.1,51.2,30.05,East,88,1.0,2.0,90,0.00,,,0.00,0,HR-IXP-WINDi_r2_v1.2,2013-02-05 12:33:00,
2013-02-05 04:38:00,54.1,51.2,30.05,East,88,1.0,2.0,90,0.00,,,0.00,0,HR-IXP-WINDi_r2_v1.2,2013-02-05 12:38:00,
2013-02-05 04:43:00,54.1,51.2,30.05,East,88,2.0,2.0,90,0.00,,,0.00,0,HR-IXP-WINDi_r2_v1.2,2013-02-05 12:43:00,
2013-02-05 04:49:00,54.1,51.2,30.05,East,84,2.0,3.0,90,0.00,,,0.00,0,HR-IXP-WINDi_r2_v1.2,2013-02-05 12:49:00,
2013-02-05 04:54:00,54.1,51.2,30.05,ENE,75,4.0,4.0,90,0.00,,,0.00,0,HR-IXP-WINDi_r2_v1.2,2013-02-05 12:54:00,
2013-02-05 04:59:00,54.0,51.1,30.05,ENE,62,2.0,4.0,90,0.00,,,0.00,0,HR-IXP-WINDi_r2_v1.2,2013-02-05 12:59:00,
2013-02-05 05:04:00,54.0,51.1,30.05,ENE,59,0.0,4.0,90,0.00,,,0.00,0,HR-IXP-WINDi_r2_v1.2,2013-02-05 13:04:00,
2013-02-05 05:10:00,54.0,51.1,30.05,ENE,59,0.0,3.0,90,0.00,,,0.00,0,HR-IXP-WINDi_r2_v1.2,2013-02-05 13:10:00,
2013-02-05 05:15:00,54.0,51.1,30.05,ENE,59,0.0,2.0,90,0.00,,,0.00,0,HR-IXP-WINDi_r2_v1.2,2013-02-05 13:15:00,
2013-02-05 05:20:00,54.0,51.1,30.04,ENE,59,0.0,2.0,90,0.00,,,0.00,0,HR-IXP-WINDi_r2_v1.2,2013-02-05 13:20:00,
2013-02-05 05:25:00,53.9,51.0,30.05,ESE,120,1.0,3.0,90,0.00,,,0.00,0,HR-IXP-WINDi_r2_v1.2,2013-02-05 13:25:00,
2013-02-05 05:30:00,53.8,50.9,30.05,ESE,120,0.0,3.0,90,0.00,,,0.00,0,HR-IXP-WINDi_r2_v1.2,2013-02-05 13:30:00,
2013-02-05 05:36:00,53.8,50.9,30.05,ESE,120,0.0,2.0,90,0.00,,,0.00,0,HR-IXP-WINDi_r2_v1.2,2013-02-05 13:36:00,
2013-02-05 05:41:00,53.9,51.0,30.06,ESE,120,1.0,2.0,90,0.00,,,0.00,0,HR-IXP-WINDi_r2_v1.2,2013-02-05 13:41:00,
2013-02-05 05:46:00,53.9,51.0,30.06,West,265,1.0,5.0,90,0.00,,,0.00,0,HR-IXP-WINDi_r2_v1.2,2013-02-05 13:46:00,
2013-02-05 05:51:00,53.9,51.0,30.06,West,265,1.0,5.0,90,0.00,,,0.00,0,HR-IXP-WINDi_r2_v1.2,2013-02-05 13:51:00,
2013-02-05 05:57:00,53.9,51.0,30.06,West,265,1.0,3.0,90,0.00,,,0.00,0,HR-IXP-WINDi_r2_v1.2,2013-02-05 13:57:00,
2013-02-05 06:02:00,53.8,50.9,30.06,SSW,202,0.0,4.0,90,0.00,,,0.00,0,HR-IXP-WINDi_r2_v1.2,2013-02-05 14:02:00,
2013-02-05 06:07:00,53.8,50.9,30.06,SSW,192,1.0,4.0,90,0.00,,,0.00,0,HR-IXP-WINDi_r2_v1.2,2013-02-05 14:07:00,
2013-02-05 06:12:00,53.8,50.9,30.06,SSW,192,0.0,3.0,90,0.00,,,0.00,0,HR-IXP-WINDi_r2_v1.2,2013-02-05 14:12:00,
2013-02-05 06:17:00,53.8,50.9,30.06,SSW,200,0.0,3.0,90,0.00,,,0.00,0,HR-IXP-WINDi_r2_v1.2,2013-02-05 14:17:00,
2013-02-05 06:23:00,53.8,50.9,30.06,SSW,203,2.0,3.0,90,0.00,,,0.00,0,HR-IXP-WINDi_r2_v1.2,2013-02-05 14:23:00,
2013-02-05 06:28:00,53.8,50.9,30.07,SSW,207,1.0,4.0,90,0.00,,,0.00,0,HR-IXP-WINDi_r2_v1.2,2013-02-05 14:28:00,
2013-02-05 06:33:00,53.8,50.9,30.08,South,186,0.0,4.0,90,0.00,,,0.00,0,HR-IXP-WINDi_r2_v1.2,2013-02-05 14:33:00,
2013-02-05 06:38:00,53.8,50.9,30.08,SW,214,1.0,5.0,90,0.00,,,0.00,0,HR-IXP-WINDi_r2_v1.2,2013-02-05 14:38:00,
2013-02-05 06:43:00,53.7,50.8,30.08,SW,220,3.0,5.0,90,0.00,,,0.00,0,HR-IXP-WINDi_r2_v1.2,2013-02-05 14:43:00,
2013-02-05 06:49:00,53.6,50.7,30.08,SSW,198,2.0,5.0,90,0.00,,,0.00,0,HR-IXP-WINDi_r2_v1.2,2013-02-05 14:49:00,
2013-02-05 06:54:00,53.5,50.6,30.09,SSW,203,2.0,5.0,90,0.00,,,0.00,0,HR-IXP-WINDi_r2_v1.2,2013-02-05 14:54:00,
2013-02-05 06:59:00,53.5,50.6,30.09,SSW,197,3.0,5.0,90,0.00,,,0.00,0,HR-IXP-WINDi_r2_v1.2,2013-02-05 14:59:00,
2013-02-05 07:05:00,53.4,50.5,30.09,SW,218,2.0,4.0,90,0.00,,,0.00,5,HR-IXP-WINDi_r2_v1.2,2013-02-05 15:05:00,
2013-02-05 07:10:00,53.4,50.5,30.09,SW,223,3.0,4.0,90,0.00,,,0.00,5,HR-IXP-WINDi_r2_v1.2,2013-02-05 15:10:00,
2013-02-05 07:15:00,53.4,50.5,30.09,SSW,194,2.0,4.0,90,0.00,,,0.00,9,HR-IXP-WINDi_r2_v1.2,2013-02-05 15:15:00,
2013-02-05 07:20:00,53.3,50.4,30.09,SSW,199,2.0,4.0,90,0.00,,,0.00,11,HR-IXP-WINDi_r2_v1.2,2013-02-05 15:20:00,
2013-02-05 07:26:00,53.4,50.5,30.10,SSW,202,0.0,4.0,90,0.00,,,0.00,14,HR-IXP-WINDi_r2_v1.2,2013-02-05 15:26:00,
2013-02-05 07:31:00,53.5,50.6,30.10,SSW,202,2.0,3.0,90,0.00,,,0.00,18,HR-IXP-WINDi_r2_v1.2,2013-02-05 15:31:00,
2013-02-05 07:36:00,53.6,50.7,30.10,SSW,202,0.0,3.0,90,0.00,,,0.00,21,HR-IXP-WINDi_r2_v1.2,2013-02-05 15:36:00,
2013-02-05 07:41:00,53.6,50.7,30.11,SSW,202,0.0,2.0,90,0.00,,,0.00,21,HR-IXP-WINDi_r2_v1.2,2013-02-05 15:41:00,
2013-02-05 07:46:00,53.6,50.7,30.11,SSW,202,0.0,0.0,90,0.00,,,0.00,21,HR-IXP-WINDi_r2_v1.2,2013-02-05 15:46:00,
2013-02-05 07:51:00,53.7,50.8,30.11,SSW,202,0.0,1.0,90,0.00,,,0.00,21,HR-IXP-WINDi_r2_v1.2,2013-02-05 15:51:00,
2013-02-05 07:57:00,53.8,50.6,30.11,SSW,202,0.0,1.0,89,0.00,,,0.00,23,HR-IXP-WINDi_r2_v1.2,2013-02-05 15:57:00,
2013-02-05 08:02:00,53.7,50.5,30.11,SSW,202,0.0,1.0,89,0.00,,,0.00,25,HR-IXP-WINDi_r2_v1.2,2013-02-05 16:02:00,
2013-02-05 08:07:00,53.9,50.7,30.11,SSW,202,0.0,1.0,89,0.00,,,0.00,28,HR-IXP-WINDi_r2_v1.2,2013-02-05 16:07:00,
2013-02-05 08:12:00,54.0,50.8,30.12,SSW,202,0.0,3.0,89,0.00,,,0.00,32,HR-IXP-WINDi_r2_v1.2,2013-02-05 16:12:00,
2013-02-05 08:17:00,53.9,50.7,30.11,SSW,206,0.0,3.0,89,0.00,,,0.00,33,HR-IXP-WINDi_r2_v1.2,2013-02-05 16:17:00,
2013-02-05 08:22:00,54.1,50.9,30.11,SSW,206,0.0,3.0,89,0.00,,,0.00,35,HR-IXP-WINDi_r2_v1.2,2013-02-05 16:22:00,
2013-02-05 08:28:00,54.1,50.6,30.11,South,169,0.0,3.0,88,0.00,,,0.00,39,HR-IXP-WINDi_r2_v1.2,2013-02-05 16:28:00,
2013-02-05 08:33:00,54.4,50.9,30.12,South,169,0.0,3.0,88,0.00,,,0.00,40,HR-IXP-WINDi_r2_v1.2,2013-02-05 16:33:00,
2013-02-05 08:38:00,54.4,50.9,30.12,South,169,0.0,4.0,88,0.00,,,0.00,42,HR-IXP-WINDi_r2_v1.2,2013-02-05 16:38:00,
2013-02-05 08:43:00,54.4,50.9,30.12,SSE,167,1.0,4.0,88,0.00,,,0.00,46,HR-IXP-WINDi_r2_v1.2,2013-02-05 16:43:00,
2013-02-05 08:48:00,54.3,50.8,30.12,SSE,150,2.0,4.0,88,0.00,,,0.00,47,HR-IXP-WINDi_r2_v1.2,2013-02-05 16:48:00,
2013-02-05 08:53:00,54.4,50.9,30.12,SE,140,0.0,4.0,88,0.00,,,0.00,53,HR-IXP-WINDi_r2_v1.2,2013-02-05 16:53:00,
2013-02-05 08:58:00,54.3,50.8,30.12,SE,140,1.0,3.0,88,0.00,,,0.00,53,HR-IXP-WINDi_r2_v1.2,2013-02-05 16:58:00,
2013-02-05 09:04:00,54.4,50.9,30.12,SE,140,1.0,4.0,88,0.00,,,0.00,62,HR-IXP-WINDi_r2_v1.2,2013-02-05 17:04:00,
2013-02-05 09:09:00,54.5,50.6,30.12,SE,140,1.0,4.0,87,0.00,,,0.00,69,HR-IXP-WINDi_r2_v1.2,2013-02-05 17:09:00,
2013-02-05 09:14:00,54.6,50.7,30.12,SE,140,1.0,3.0,87,0.00,,,0.00,69,HR-IXP-WINDi_r2_v1.2,2013-02-05 17:14:00,
2013-02-05 09:19:00,54.9,51.0,30.13,SE,140,2.0,2.0,87,0.00,,,0.00,74,HR-IXP-WINDi_r2_v1.2,2013-02-05 17:19:00,
2013-02-05 09:24:00,55.3,51.4,30.13,SE,138,0.0,3.0,87,0.00,,,0.00,77,HR-IXP-WINDi_r2_v1.2,2013-02-05 17:24:00,
2013-02-05 09:29:00,55.4,51.2,30.13,SSE,149,1.0,3.0,86,0.00,,,0.00,83,HR-IXP-WINDi_r2_v1.2,2013-02-05 17:29:00,
2013-02-05 09:34:00,55.1,50.9,30.13,SE,140,0.0,3.0,86,0.00,,,0.00,84,HR-IXP-WINDi_r2_v1.2,2013-02-05 17:34:00,
2013-02-05 09:40:00,55.2,50.7,30.13,SE,140,0.0,3.0,85,0.00,,,0.00,84,HR-IXP-WINDi_r2_v1.2,2013-02-05 17:40:00,
2013-02-05 09:45:00,54.8,50.6,30.14,SE,140,1.0,1.0,86,0.00,,,0.00,86,HR-IXP-WINDi_r2_v1.2,2013-02-05 17:45:00,
2013-02-05 09:50:00,54.9,50.7,30.13,SSE,148,1.0,2.0,86,0.00,,,0.00,104,HR-IXP-WINDi_r2_v1.2,2013-02-05 17:50:00,
2013-02-05 09:55:00,54.7,50.5,30.13,SSE,148,0.0,2.0,86,0.00,,,0.00,113,HR-IXP-WINDi_r2_v1.2,2013-02-05 17:55:00,
2013-02-05 10:00:00,55.3,51.1,30.14,SSE,148,0.0,2.0,86,0.00,,,0.00,107,HR-IXP-WINDi_r2_v1.2,2013-02-05 18:00:00,
2013-02-05 10:05:00,55.2,50.7,30.14,SSW,208,2.0,3.0,85,0.00,,,0.00,102,HR-IXP-WINDi_r2_v1.2,2013-02-05 18:05:00,
2013-02-05 10:11:00,54.9,50.4,30.14,SSW,208,2.0,3.0,85,0.00,,,0.00,107,HR-IXP-WINDi_r2_v1.2,2013-02-05 18:11:00,
2013-02-05 10:16:00,55.6,51.4,30.14,South,175,1.0,3.0,86,0.00,,,0.00,111,HR-IXP-WINDi_r2_v1.2,2013-02-05 18:16:00,
2013-02-05 10:21:00,55.4,50.9,30.14,WSW,256,2.0,4.0,85,0.00,,,0.00,116,HR-IXP-WINDi_r2_v1.2,2013-02-05 18:21:00,
2013-02-05 10:26:00,55.0,50.5,30.14,SW,226,0.0,4.0,85,0.00,,,0.00,120,HR-IXP-WINDi_r2_v1.2,2013-02-05 18:26:00,
2013-02-05 10:32:00,55.4,50.9,30.14,SW,226,0.0,4.0,85,0.00,,,0.00,123,HR-IXP-WINDi_r2_v1.2,2013-02-05 18:32:00,
2013-02-05 10:37:00,55.1,50.6,30.13,SW,227,2.0,3.0,85,0.00,,,0.00,132,HR-IXP-WINDi_r2_v1.2,2013-02-05 18:37:00,
2013-02-05 10:42:00,55.3,51.1,30.14,SW,227,2.0,3.0,86,0.00,,,0.00,116,HR-IXP-WINDi_r2_v1.2,2013-02-05 18:42:00,
2013-02-05 10:47:00,55.5,51.3,30.14,SSE,151,3.0,4.0,86,0.00,,,0.00,116,HR-IXP-WINDi_r2_v1.2,2013-02-05 18:47:00,
2013-02-05 10:53:00,55.7,50.9,30.14,SSW,207,1.0,5.0,84,0.00,,,0.00,109,HR-IXP-WINDi_r2_v1.2,2013-02-05 18:53:00,
2013-02-05 10:58:00,55.8,51.3,30.14,SSE,161,2.0,5.0,85,0.00,,,0.00,104,HR-IXP-WINDi_r2_v1.2,2013-02-05 18:58:00,
2013-02-05 11:03:00,56.0,51.2,30.14,SSE,161,1.0,5.0,84,0.00,,,0.00,91,HR-IXP-WINDi_r2_v1.2,2013-02-05 19:03:00,
2013-02-05 11:08:00,56.1,51.3,30.14,SSE,162,0.0,3.0,84,0.00,,,0.00,91,HR-IXP-WINDi_r2_v1.2,2013-02-05 19:08:00,
2013-02-05 11:13:00,56.2,51.4,30.13,SSE,153,1.0,4.0,84,0.00,,,0.00,98,HR-IXP-WINDi_r2_v1.2,2013-02-05 19:13:00,
2013-02-05 11:19:00,56.0,51.2,30.13,SSE,158,2.0,5.0,84,0.00,,,0.00,105,HR-IXP-WINDi_r2_v1.2,2013-02-05 19:19:00,
2013-02-05 11:24:00,56.2,51.4,30.13,SSE,147,2.0,5.0,84,0.00,,,0.00,100,HR-IXP-WINDi_r2_v1.2,2013-02-05 19:24:00,
2013-02-05 11:29:00,56.3,51.1,30.12,SSE,148,1.0,5.0,83,0.00,,,0.00,111,HR-IXP-WINDi_r2_v1.2,2013-02-05 19:29:00,
2013-02-05 11:34:00,56.0,50.8,30.12,SSW,211,1.0,5.0,83,0.00,,,0.00,127,HR-IXP-WINDi_r2_v1.2,2013-02-05 19:34:00,
2013-02-05 11:40:00,55.9,51.1,30.12,SSW,213,0.0,4.0,84,0.00,,,0.00,116,HR-IXP-WINDi_r2_v1.2,2013-02-05 19:40:00,
2013-02-05 11:45:00,55.8,51.0,30.12,South,188,2.0,4.0,84,0.00,,,0.00,107,HR-IXP-WINDi_r2_v1.2,2013-02-05 19:45:00,
2013-02-05 11:50:00,55.8,51.0,30.12,SW,224,1.0,5.0,84,0.00,,,0.00,100,HR-IXP-WINDi_r2_v1.2,2013-02-05 19:50:00,
2013-02-05 11:55:00,56.0,51.2,30.11,SW,224,0.0,5.0,84,0.00,,,0.00,111,HR-IXP-WINDi_r2_v1.2,2013-02-05 19:55:00,
2013-02-05 12:00:00,56.0,51.2,30.11,West,261,2.0,4.0,84,0.00,,,0.00,109,HR-IXP-WINDi_r2_v1.2,2013-02-05 20:00:00,
2013-02-05 12:05:00,56.1,51.3,30.10,West,271,1.0,4.0,84,0.00,,,0.00,111,HR-IXP-WINDi_r2_v1.2,2013-02-05 20:05:00,
2013-02-05 12:10:00,55.8,51.0,30.10,West,271,0.0,3.0,84,0.00,,,0.00,114,HR-IXP-WINDi_r2_v1.2,2013-02-05 20:10:00,
2013-02-05 12:16:00,56.6,51.8,30.10,West,271,0.0,3.0,84,0.00,,,0.00,121,HR-IXP-WINDi_r2_v1.2,2013-02-05 20:16:00,
2013-02-05 12:21:00,57.3,52.1,30.09,SSW,194,0.0,3.0,83,0.00,,,0.00,132,HR-IXP-WINDi_r2_v1.2,2013-02-05 20:21:00,
2013-02-05 12:26:00,56.8,51.6,30.09,SSW,194,0.0,3.0,83,0.00,,,0.00,125,HR-IXP-WINDi_r2_v1.2,2013-02-05 20:26:00,
2013-02-05 12:31:00,56.7,51.5,30.08,SSW,194,1.0,2.0,83,0.00,,,0.00,132,HR-IXP-WINDi_r2_v1.2,2013-02-05 20:31:00,
2013-02-05 12:36:00,56.4,51.2,30.08,SSW,194,0.0,2.0,83,0.00,,,0.00,127,HR-IXP-WINDi_r2_v1.2,2013-02-05 20:36:00,
2013-02-05 12:42:00,56.3,51.1,30.08,WSW,257,1.0,4.0,83,0.00,,,0.00,132,HR-IXP-WINDi_r2_v1.2,2013-02-05 20:42:00,
2013-02-05 12:47:00,56.5,51.3,30.08,WNW,282,3.0,4.0,83,0.00,,,0.00,134,HR-IXP-WINDi_r2_v1.2,2013-02-05 20:47:00,
2013-02-05 12:52:00,56.4,51.2,30.08,West,274,3.0,5.0,83,0.00,,,0.00,155,HR-IXP-WINDi_r2_v1.2,2013-02-05 20:52:00,
2013-02-05 12:57:00,56.3,51.1,30.08,West,261,1.0,5.0,83,0.00,,,0.00,179,HR-IXP-WINDi_r2_v1.2,2013-02-05 20:57:00,
2013-02-05 13:02:00,56.4,51.2,30.07,West,267,2.0,5.0,83,0.00,,,0.00,186,HR-IXP-WINDi_r2_v1.2,2013-02-05 21:02:00,
2013-02-05 13:07:00,56.8,51.3,30.07,West,266,2.0,4.0,82,0.00,,,0.00,214,HR-IXP-WINDi_r2_v1.2,2013-02-05 21:07:00,
2013-02-05 13:12:00,57.6,51.7,30.06,West,267,0.0,4.0,81,0.00,,,0.00,234,HR-IXP-WINDi_r2_v1.2,2013-02-05 21:12:00,
2013-02-05 13:18:00,58.5,52.3,30.06,West,267,1.0,3.0,80,0.00,,,0.00,232,HR-IXP-WINDi_r2_v1.2,2013-02-05 21:18:00,
2013-02-05 13:23:00,58.6,52.0,30.06,West,273,1.0,3.0,79,0.00,,,0.00,213,HR-IXP-WINDi_r2_v1.2,2013-02-05 21:23:00,
2013-02-05 13:28:00,59.5,52.6,30.06,NNW,342,1.0,3.0,78,0.00,,,0.00,206,HR-IXP-WINDi_r2_v1.2,2013-02-05 21:28:00,
2013-02-05 13:34:00,58.7,52.1,30.06,NNW,342,0.0,3.0,79,0.00,,,0.00,213,HR-IXP-WINDi_r2_v1.2,2013-02-05 21:34:00,
2013-02-05 13:39:00,59.4,52.8,30.06,NNW,343,0.0,2.0,79,0.00,,,0.00,192,HR-IXP-WINDi_r2_v1.2,2013-02-05 21:39:00,
2013-02-05 13:44:00,59.5,52.6,30.05,NE,39,2.0,3.0,78,0.00,,,0.00,169,HR-IXP-WINDi_r2_v1.2,2013-02-05 21:44:00,
2013-02-05 13:49:00,58.8,51.9,30.05,NE,39,0.0,3.0,78,0.00,,,0.00,214,HR-IXP-WINDi_r2_v1.2,2013-02-05 21:49:00,
2013-02-05 13:54:00,59.4,52.1,30.05,SE,131,3.0,5.0,77,0.00,,,0.00,199,HR-IXP-WINDi_r2_v1.2,2013-02-05 21:54:00,
2013-02-05 13:59:00,59.6,52.3,30.04,East,94,1.0,5.0,77,0.00,,,0.00,246,HR-IXP-WINDi_r2_v1.2,2013-02-05 21:59:00,
2013-02-05 14:05:00,59.0,51.4,30.04,NE,47,1.0,5.0,76,0.00,,,0.00,227,HR-IXP-WINDi_r2_v1.2,2013-02-05 22:05:00,
2013-02-05 14:10:00,58.5,51.6,30.04,NE,35,0.0,3.0,78,0.00,,,0.00,213,HR-IXP-WINDi_r2_v1.2,2013-02-05 22:10:00,
2013-02-05 14:15:00,60.3,53.3,30.04,NE,35,1.0,2.0,78,0.00,,,0.00,216,HR-IXP-WINDi_r2_v1.2,2013-02-05 22:15:00,
2013-02-05 14:20:00,60.6,52.6,30.04,East,95,0.0,3.0,75,0.00,,,0.00,146,HR-IXP-WINDi_r2_v1.2,2013-02-05 22:20:00,
2013-02-05 14:25:00,60.5,52.1,30.03,East,95,1.0,3.0,74,0.00,,,0.00,130,HR-IXP-WINDi_r2_v1.2,2013-02-05 22:25:00,
2013-02-05 14:30:00,59.3,51.3,30.03,SE,138,0.0,3.0,75,0.00,,,0.00,156,HR-IXP-WINDi_r2_v1.2,2013-02-05 22:30:00,
2013-02-05 14:35:00,59.0,51.4,30.03,SSE,154,1.0,4.0,76,0.00,,,0.00,193,HR-IXP-WINDi_r2_v1.2,2013-02-05 22:35:00,
2013-02-05 14:41:00,58.7,51.4,30.02,SSE,161,0.0,4.0,77,0.00,,,0.00,334,HR-IXP-WINDi_r2_v1.2,2013-02-05 22:41:00,
2013-02-05 14:46:00,59.0,51.4,30.02,SSE,161,0.0,3.0,76,0.00,,,0.00,341,HR-IXP-WINDi_r2_v1.2,2013-02-05 22:46:00,
2013-02-05 14:51:00,59.6,52.3,30.02,SSE,161,0.0,3.0,77,0.00,,,0.00,329,HR-IXP-WINDi_r2_v1.2,2013-02-05 22:51:00,
2013-02-05 14:56:00,61.9,53.1,30.02,SE,128,2.0,3.0,73,0.00,,,0.00,327,HR-IXP-WINDi_r2_v1.2,2013-02-05 22:56:00,
2013-02-05 15:01:00,62.1,53.3,30.02,SE,129,0.0,3.0,73,0.00,,,0.00,306,HR-IXP-WINDi_r2_v1.2,2013-02-05 23:01:00,
2013-02-05 15:06:00,59.9,50.8,30.02,WSW,244,0.0,4.0,72,0.00,,,0.00,200,HR-IXP-WINDi_r2_v1.2,2013-02-05 23:06:00,
2013-02-05 15:12:00,59.0,51.0,30.02,WSW,255,0.0,4.0,75,0.00,,,0.00,149,HR-IXP-WINDi_r2_v1.2,2013-02-05 23:12:00,
2013-02-05 15:17:00,59.8,51.4,30.03,SW,236,1.0,2.0,74,0.00,,,0.00,149,HR-IXP-WINDi_r2_v1.2,2013-02-05 23:17:00,
2013-02-05 15:22:00,59.0,51.4,30.03,West,262,2.0,4.0,76,0.00,,,0.00,121,HR-IXP-WINDi_r2_v1.2,2013-02-05 23:22:00,
2013-02-05 15:27:00,58.7,51.1,30.03,WSW,257,3.0,4.0,76,0.00,,,0.00,121,HR-IXP-WINDi_r2_v1.2,2013-02-05 23:27:00,
2013-02-05 15:32:00,58.6,51.7,30.03,WSW,242,3.0,7.0,78,0.00,,,0.00,111,HR-IXP-WINDi_r2_v1.2,2013-02-05 23:32:00,
2013-02-05 15:37:00,58.7,51.4,30.03,SW,236,2.0,7.0,77,0.00,,,0.00,102,HR-IXP-WINDi_r2_v1.2,2013-02-05 23:37:00,
2013-02-05 15:43:00,58.2,51.3,30.04,SW,221,3.0,9.0,78,0.00,,,0.00,118,HR-IXP-WINDi_r2_v1.2,2013-02-05 23:43:00,
2013-02-05 15:48:00,58.1,51.6,30.04,SW,228,2.0,9.0,79,0.00,,,0.00,113,HR-IXP-WINDi_r2_v1.2,2013-02-05 23:48:00,
2013-02-05 15:53:00,57.9,51.4,30.04,WSW,254,4.0,7.0,79,0.00,,,0.00,123,HR-IXP-WINDi_r2_v1.2,2013-02-05 23:53:00,
2013-02-05 15:58:00,57.6,51.4,30.04,SW,229,3.0,10.0,80,0.00,,,0.00,114,HR-IXP-WINDi_r2_v1.2,2013-02-05 23:58:00,
2013-02-05 16:03:00,57.5,51.3,30.04,West,259,4.0,10.0,80,0.00,,,0.00,93,HR-IXP-WINDi_r2_v1.2,2013-02-06 00:03:00,
2013-02-05 16:08:00,57.4,51.6,30.03,WSW,238,3.0,8.0,81,0.00,,,0.00,100,HR-IXP-WINDi_r2_v1.2,2013-02-06 00:08:00,
2013-02-05 16:13:00,57.2,51.4,30.03,SW,219,3.0,8.0,81,0.00,,,0.00,114,HR-IXP-WINDi_r2_v1.2,2013-02-06 00:13:00,
2013-02-05 16:18:00,57.1,51.6,30.03,SW,221,3.0,8.0,82,0.00,,,0.00,121,HR-IXP-WINDi_r2_v1.2,2013-02-06 00:18:00,
2013-02-05 16:24:00,57.0,51.5,30.03,WSW,241,3.0,7.0,82,0.00,,,0.00,74,HR-IXP-WINDi_r2_v1.2,2013-02-06 00:24:00,
2013-02-05 16:29:00,56.8,51.6,30.03,South,190,4.0,7.0,83,0.00,,,0.00,47,HR-IXP-WINDi_r2_v1.2,2013-02-06 00:29:00,
2013-02-05 16:34:00,56.5,51.3,30.03,SW,226,4.0,6.0,83,0.00,,,0.00,42,HR-IXP-WINDi_r2_v1.2,2013-02-06 00:34:00,
2013-02-05 16:40:00,56.3,51.5,30.03,SW,229,4.0,6.0,84,0.00,,,0.00,37,HR-IXP-WINDi_r2_v1.2,2013-02-06 00:40:00,
2013-02-05 16:45:00,56.2,51.4,30.03,SW,225,2.0,5.0,84,0.00,,,0.00,30,HR-IXP-WINDi_r2_v1.2,2013-02-06 00:45:00,
2013-02-05 16:50:00,56.1,51.3,30.03,WSW,251,2.0,6.0,84,0.00,,,0.00,23,HR-IXP-WINDi_r2_v1.2,2013-02-06 00:50:00,
2013-02-05 16:55:00,56.0,51.2,30.03,SSW,211,2.0,6.0,84,0.00,,,0.00,21,HR-IXP-WINDi_r2_v1.2,2013-02-06 00:55:00,
2013-02-05 17:00:00,56.0,51.5,30.03,SW,215,5.0,5.0,85,0.00,,,0.00,18,HR-IXP-WINDi_r2_v1.2,2013-02-06 01:00:00,
2013-02-05 17:06:00,55.9,51.4,30.03,SW,229,2.0,6.0,85,0.00,,,0.00,11,HR-IXP-WINDi_r2_v1.2,2013-02-06 01:06:00,
2013-02-05 17:11:00,55.9,51.4,30.04,SW,214,1.0,6.0,85,0.00,,,0.00,7,HR-IXP-WINDi_r2_v1.2,2013-02-06 01:11:00,
2013-02-05 17:16:00,55.9,51.4,30.04,SSW,198,2.0,5.0,85,0.00,,,0.00,7,HR-IXP-WINDi_r2_v1.2,2013-02-06 01:16:00,
2013-02-05 17:21:00,55.9,51.4,30.04,South,186,3.0,5.0,85,0.00,,,0.00,0,HR-IXP-WINDi_r2_v1.2,2013-02-06 01:21:00,
2013-02-05 17:26:00,55.8,51.3,30.04,SW,233,2.0,6.0,85,0.00,,,0.00,0,HR-IXP-WINDi_r2_v1.2,2013-02-06 01:26:00,
2013-02-05 17:32:00,55.7,51.2,30.04,SSW,205,3.0,7.0,85,0.00,,,0.00,0,HR-IXP-WINDi_r2_v1.2,2013-02-06 01:32:00,
2013-02-05 17:37:00,55.6,51.1,30.04,SSW,207,5.0,7.0,85,0.00,,,0.00,0,HR-IXP-WINDi_r2_v1.2,2013-02-06 01:37:00,
2013-02-05 17:42:00,55.6,51.1,30.04,SW,232,3.0,6.0,85,0.00,,,0.00,0,HR-IXP-WINDi_r2_v1.2,2013-02-06 01:42:00,
2013-02-05 17:47:00,55.6,51.1,30.04,SW,217,2.0,6.0,85,0.00,,,0.00,0,HR-IXP-WINDi_r2_v1.2,2013-02-06 01:47:00,
2013-02-05 17:52:00,55.6,51.1,30.04,WSW,247,3.0,5.0,85,0.00,,,0.00,0,HR-IXP-WINDi_r2_v1.2,2013-02-06 01:52:00,
2013-02-05 17:57:00,55.5,51.0,30.05,SW,221,0.0,5.0,85,0.00,,,0.00,0,HR-IXP-WINDi_r2_v1.2,2013-02-06 01:57:00,
2013-02-05 18:03:00,55.7,50.9,30.05,SSW,194,4.0,5.0,84,0.00,,,0.00,0,HR-IXP-WINDi_r2_v1.2,2013-02-06 02:03:00,
2013-02-05 18:08:00,55.6,50.8,30.04,SSW,201,1.0,5.0,84,0.00,,,0.00,0,HR-IXP-WINDi_r2_v1.2,2013-02-06 02:08:00,
2013-02-05 18:13:00,55.6,50.8,30.04,SSW,202,2.0,6.0,84,0.00,,,0.00,0,HR-IXP-WINDi_r2_v1.2,2013-02-06 02:13:00,
2013-02-05 18:18:00,55.6,51.1,30.04,SW,215,5.0,7.0,85,0.00,,,0.00,0,HR-IXP-WINDi_r2_v1.2,2013-02-06 02:18:00,
2013-02-05 18:23:00,55.6,50.8,30.05,SSW,192,4.0,7.0,84,0.00,,,0.00,0,HR-IXP-WINDi_r2_v1.2,2013-02-06 02:23:00,
2013-02-05 18:29:00,55.6,51.1,30.04,SSW,208,2.0,6.0,85,0.00,,,0.00,0,HR-IXP-WINDi_r2_v1.2,2013-02-06 02:29:00,
2013-02-05 18:34:00,55.6,51.1,30.04,SSW,207,3.0,7.0,85,0.00,,,0.00,0,HR-IXP-WINDi_r2_v1.2,2013-02-06 02:34:00,
2013-02-05 18:39:00,55.5,51.0,30.04,SW,216,3.0,7.0,85,0.00,,,0.00,0,HR-IXP-WINDi_r2_v1.2,2013-02-06 02:39:00,
2013-02-05 18:44:00,55.6,51.1,30.05,SSW,212,4.0,5.0,85,0.00,,,0.00,0,HR-IXP-WINDi_r2_v1.2,2013-02-06 02:44:00,
2013-02-05 18:50:00,55.6,51.1,30.05,SSW,205,6.0,6.0,85,0.00,,,0.00,0,HR-IXP-WINDi_r2_v1.2,2013-02-06 02:50:00,
2013-02-05 18:55:00,55.6,51.1,30.04,SSW,204,1.0,6.0,85,0.00,,,0.00,0,HR-IXP-WINDi_r2_v1.2,2013-02-06 02:55:00,
2013-02-05 19:00:00,55.6,51.1,30.04,SSW,196,2.0,6.0,85,0.00,,,0.00,0,HR-IXP-WINDi_r2_v1.2,2013-02-06 03:00:00,
2013-02-05 19:05:00,55.6,51.1,30.04,SW,218,1.0,4.0,85,0.00,,,0.00,0,HR-IXP-WINDi_r2_v1.2,2013-02-06 03:05:00,
2013-02-05 19:10:00,55.6,51.1,30.04,South,182,0.0,4.0,85,0.00,,,0.00,0,HR-IXP-WINDi_r2_v1.2,2013-02-06 03:10:00,
2013-02-05 19:15:00,55.6,51.1,30.04,SSW,195,2.0,4.0,85,0.00,,,0.00,0,HR-IXP-WINDi_r2_v1.2,2013-02-06 03:15:00,
2013-02-05 19:20:00,55.6,50.8,30.04,South,181,2.0,4.0,84,0.00,,,0.00,0,HR-IXP-WINDi_r2_v1.2,2013-02-06 03:20:00,
2013-02-05 19:25:00,55.6,50.8,30.05,South,181,2.0,4.0,84,0.00,,,0.00,0,HR-IXP-WINDi_r2_v1.2,2013-02-06 03:25:00,
2013-02-05 19:31:00,55.5,50.7,30.05,SSW,212,1.0,5.0,84,0.00,,,0.00,0,HR-IXP-WINDi_r2_v1.2,2013-02-06 03:31:00,
2013-02-05 19:36:00,55.6,50.8,30.05,SSW,208,1.0,5.0,84,0.00,,,0.00,0,HR-IXP-WINDi_r2_v1.2,2013-02-06 03:36:00,
2013-02-05 19:41:00,55.6,50.5,30.05,SSW,202,1.0,5.0,83,0.00,,,0.00,0,HR-IXP-WINDi_r2_v1.2,2013-02-06 03:41:00,
2013-02-05 19:46:00,55.5,50.4,30.05,SW,227,1.0,5.0,83,0.00,,,0.00,0,HR-IXP-WINDi_r2_v1.2,2013-02-06 03:46:00,
2013-02-05 19:51:00,55.4,50.3,30.05,SSW,199,4.0,6.0,83,0.00,,,0.00,0,HR-IXP-WINDi_r2_v1.2,2013-02-06 03:51:00,
2013-02-05 19:57:00,55.4,50.3,30.05,SW,215,2.0,6.0,83,0.00,,,0.00,0,HR-IXP-WINDi_r2_v1.2,2013-02-06 03:57:00,
2013-02-05 20:02:00,55.4,50.3,30.05,SW,228,2.0,4.0,83,0.00,,,0.00,0,HR-IXP-WINDi_r2_v1.2,2013-02-06 04:02:00,
2013-02-05 20:07:00,55.5,50.4,30.06,West,266,2.0,4.0,83,0.00,,,0.00,0,HR-IXP-WINDi_r2_v1.2,2013-02-06 04:07:00,
2013-02-05 20:12:00,55.5,50.4,30.06,SSW,204,1.0,5.0,83,0.00,,,0.00,0,HR-IXP-WINDi_r2_v1.2,2013-02-06 04:12:00,
2013-02-05 20:17:00,55.5,50.4,30.06,South,191,3.0,5.0,83,0.00,,,0.00,0,HR-IXP-WINDi_r2_v1.2,2013-02-06 04:17:00,
2013-02-05 20:22:00,55.5,50.4,30.06,South,182,1.0,4.0,83,0.00,,,0.00,0,HR-IXP-WINDi_r2_v1.2,2013-02-06 04:22:00,
2013-02-05 20:27:00,55.5,50.4,30.06,SW,215,3.0,5.0,83,0.00,,,0.00,0,HR-IXP-WINDi_r2_v1.2,2013-02-06 04:27:00,
2013-02-05 20:33:00,55.6,50.5,30.06,SSW,210,1.0,5.0,83,0.00,,,0.00,0,HR-IXP-WINDi_r2_v1.2,2013-02-06 04:33:00,
2013-02-05 20:38:00,55.7,50.6,30.06,SW,216,2.0,4.0,83,0.00,,,0.00,0,HR-IXP-WINDi_r2_v1.2,2013-02-06 04:38:00,
2013-02-05 20:43:00,55.7,50.6,30.06,SW,215,2.0,4.0,83,0.00,,,0.00,0,HR-IXP-WINDi_r2_v1.2,2013-02-06 04:43:00,
2013-02-05 20:48:00,55.7,50.6,30.07,SSW,204,4.0,5.0,83,0.00,,,0.00,0,HR-IXP-WINDi_r2_v1.2,2013-02-06 04:48:00,
2013-02-05 20:54:00,55.7,50.6,30.07,SSW,198,3.0,5.0,83,0.00,,,0.00,0,HR-IXP-WINDi_r2_v1.2,2013-02-06 04:54:00,
2013-02-05 20:59:00,55.6,50.5,30.06,SSW,197,1.0,5.0,83,0.00,,,0.00,0,HR-IXP-WINDi_r2_v1.2,2013-02-06 04:59:00,
2013-02-05 21:00:00,55.5,50.4,30.06,South,180,1.0,5.0,83,0.00,,,0.00,0,HR-IXP-WINDi_r2_v1.2,2013-02-06 05:00:00,
2013-02-05 21:05:00,55.5,50.4,30.06,SSW,196,0.0,4.0,83,0.00,,,0.00,0,HR-IXP-WINDi_r2_v1.2,2013-02-06 05:05:00,
2013-02-05 21:10:00,55.5,50.4,30.06,SW,219,2.0,6.0,83,0.00,,,0.00,0,HR-IXP-WINDi_r2_v1.2,2013-02-06 05:10:00,
2013-02-05 21:15:00,55.5,50.4,30.07,SW,236,2.0,6.0,83,0.00,,,0.00,0,HR-IXP-WINDi_r2_v1.2,2013-02-06 05:15:00,
2013-02-05 21:20:00,55.5,50.4,30.06,SSW,205,0.0,4.0,83,0.00,,,0.00,0,HR-IXP-WINDi_r2_v1.2,2013-02-06 05:20:00,
2013-02-05 21:26:00,55.5,50.4,30.06,SSW,209,1.0,4.0,83,0.00,,,0.00,0,HR-IXP-WINDi_r2_v1.2,2013-02-06 05:26:00,
2013-02-05 21:31:00,55.5,50.4,30.07,SSW,213,0.0,4.0,83,0.00,,,0.00,0,HR-IXP-WINDi_r2_v1.2,2013-02-06 05:31:00,
2013-02-05 21:36:00,55.4,50.3,30.07,SSW,205,1.0,3.0,83,0.00,,,0.00,0,HR-IXP-WINDi_r2_v1.2,2013-02-06 05:36:00,
2013-02-05 21:41:00,55.4,50.3,30.06,SSW,208,2.0,3.0,83,0.00,,,0.00,0,HR-IXP-WINDi_r2_v1.2,2013-02-06 05:41:00,
2013-02-05 21:46:00,55.3,50.2,30.07,WSW,252,2.0,4.0,83,0.00,,,0.00,0,HR-IXP-WINDi_r2_v1.2,2013-02-06 05:46:00,
2013-02-05 21:51:00,55.2,50.1,30.06,West,261,2.0,4.0,83,0.00,,,0.00,0,HR-IXP-WINDi_r2_v1.2,2013-02-06 05:51:00,
2013-02-05 21:57:00,55.2,50.1,30.06,West,261,0.0,4.0,83,0.00,,,0.00,0,HR-IXP-WINDi_r2_v1.2,2013-02-06 05:57:00,
2013-02-05 22:02:00,55.3,50.2,30.06,West,261,1.0,3.0,83,0.00,,,0.00,0,HR-IXP-WINDi_r2_v1.2,2013-02-06 06:02:00,
2013-02-05 22:07:00,55.2,50.1,30.06,West,261,1.0,3.0,83,0.00,,,0.00,0,HR-IXP-WINDi_r2_v1.2,2013-02-06 06:07:00,
2013-02-05 22:12:00,55.3,50.2,30.07,West,259,1.0,3.0,83,0.00,,,0.00,0,HR-IXP-WINDi_r2_v1.2,2013-02-06 06:12:00,
2013-02-05 22:17:00,55.3,49.8,30.06,West,259,0.0,3.0,82,0.00,,,0.00,0,HR-IXP-WINDi_r2_v1.2,2013-02-06 06:17:00,
2013-02-05 22:23:00,55.3,49.8,30.06,West,259,0.0,2.0,82,0.00,,,0.00,0,HR-IXP-WINDi_r2_v1.2,2013-02-06 06:23:00,
2013-02-05 22:28:00,55.3,49.8,30.06,West,259,0.0,2.0,82,0.00,,,0.00,0,HR-IXP-WINDi_r2_v1.2,2013-02-06 06:28:00,
2013-02-05 22:33:00,55.3,49.8,30.07,West,259,0.0,1.0,82,0.00,,,0.00,0,HR-IXP-WINDi_r2_v1.2,2013-02-06 06:33:00,
2013-02-05 22:39:00,55.3,49.8,30.06,West,259,1.0,2.0,82,0.00,,,0.00,0,HR-IXP-WINDi_r2_v1.2,2013-02-06 06:39:00,
2013-02-05 22:44:00,55.3,49.8,30.06,West,259,0.0,2.0,82,0.00,,,0.00,0,HR-IXP-WINDi_r2_v1.2,2013-02-06 06:44:00,
2013-02-05 22:49:00,55.3,49.8,30.06,West,259,0.0,2.0,82,0.00,,,0.00,0,HR-IXP-WINDi_r2_v1.2,2013-02-06 06:49:00,
2013-02-05 22:54:00,55.3,49.8,30.06,West,259,0.0,1.0,82,0.00,,,0.00,0,HR-IXP-WINDi_r2_v1.2,2013-02-06 06:54:00,
2013-02-05 23:00:00,55.3,49.8,30.06,West,259,0.0,0.0,82,0.00,,,0.00,0,HR-IXP-WINDi_r2_v1.2,2013-02-06 07:00:00,
2013-02-05 23:05:00,55.3,49.8,30.05,West,259,0.0,0.0,82,0.00,,,0.00,0,HR-IXP-WINDi_r2_v1.2,2013-02-06 07:05:00,
2013-02-05 23:10:00,55.3,49.8,30.05,West,259,0.0,1.0,82,0.00,,,0.00,0,HR-IXP-WINDi_r2_v1.2,2013-02-06 07:10:00,
2013-02-05 23:15:00,55.4,49.9,30.05,West,259,0.0,2.0,82,0.00,,,0.00,0,HR-IXP-WINDi_r2_v1.2,2013-02-06 07:15:00,
2013-02-05 23:21:00,55.3,49.8,30.05,WSW,258,0.0,2.0,82,0.00,,,0.00,0,HR-IXP-WINDi_r2_v1.2,2013-02-06 07:21:00,
2013-02-05 23:26:00,55.3,49.8,30.05,WSW,258,0.0,2.0,82,0.00,,,0.00,0,HR-IXP-WINDi_r2_v1.2,2013-02-06 07:26:00,
2013-02-05 23:31:00,55.3,49.8,30.05,WSW,258,0.0,0.0,82,0.00,,,0.00,0,HR-IXP-WINDi_r2_v1.2,2013-02-06 07:31:00,
2013-02-05 23:36:00,55.3,49.8,30.05,WSW,258,0.0,0.0,82,0.00,,,0.00,0,HR-IXP-WINDi_r2_v1.2,2013-02-06 07:36:00,
2013-02-05 23:42:00,55.4,49.9,30.06,WSW,258,0.0,0.0,82,0.00,,,0.00,0,HR-IXP-WINDi_r2_v1.2,2013-02-06 07:42:00,
2013-02-05 23:47:00,55.3,49.8,30.05,WSW,258,0.0,0.0,82,0.00,,,0.00,0,HR-IXP-WINDi_r2_v1.2,2013-02-06 07:47:00,
2013-02-05 23:52:00,55.3,49.8,30.05,West,259,0.0,1.0,82,0.00,,,0.00,0,HR-IXP-WINDi_r2_v1.2,2013-02-06 07:52:00,
2013-02-05 23:57:00,55.3,49.8,30.05,WSW,258,0.0,1.0,82,0.00,,,0.00,0,HR-IXP-WINDi_r2_v1.2,2013-02-06 07:57:00,